Cumberland, WI

4:05 PM CST on December 14, 2019 (GMT -0600)
Cumberland Municipal

Weather History for KUBE - October, 2019

Change the Weather History Date:

Thursday, October 3, 2019

  Actual Average (WUND) Record (WUND)
Temperature  
Mean Temperature 44 °F -  
Max Temperature 46 °F - - (-1)
Min Temperature 41 °F - - (-1)
Degree Days  
Heating Degree Days 22    
Moisture  
Dew Point 39 °F    
Average Humidity 85    
Maximum Humidity 100    
Minimum Humidity 66    
Precipitation  
Precipitation 0.05 in - - ()
Sea Level Pressure  
Sea Level Pressure 30.14 in    
Wind  
Wind Speed 7 mph (NW)    
Max Wind Speed 16 mph    
Max Gust Speed 26 mph    
Visibility 7 miles    
Events Rain    
Averages and records for this station are not official NWS values.
T = Trace of Precipitation, MM = Missing Value Source: NWS Daily Summary

Daily Weather History Graph

Daily Weather History Graph

Search for Another Location

Airport or City:

Astronomy

Oct. 03, 2019 Rise Set
Actual Time 7:08 AM CDT 6:44 PM CDT
Civil Twilight 6:38 AM CDT 7:14 PM CDT
Nautical Twilight 6:04 AM CDT 7:48 PM CDT
Astronomical Twilight 5:29 AM CDT 8:23 PM CDT
Moon 12:55 PM CDT (10/3) 10:08 PM CDT (10/3)
Length of Visible Light 12h 35m
Length of Day
11h 36m
Waxing Crescent, 30% of the Moon is Illuminated
Oct 3
Waxing Crescent
Oct 5
First Quarter
Oct 13
Full
Oct 21
Last Quarter
Oct 27
New

Hourly Weather History & Observations

Time (CDT) Temp. Windchill Dew Point Humidity Pressure Visibility Wind Dir Wind Speed Gust Speed Precip Events Conditions
12:15 AM 42.8 °F 38.6 °F 42.8 °F 100% 30.01 in 3.0 mi East 6.9 mph - N/A Rain Rain
12:35 AM 42.8 °F 39.3 °F 42.8 °F 100% 30.01 in 5.0 mi East 5.8 mph - 0.01 in   Light Drizzle
12:55 AM 42.8 °F 39.3 °F 42.8 °F 100% 30.00 in 4.0 mi East 5.8 mph - 0.01 in   Drizzle
1:15 AM 42.8 °F 38.6 °F 42.8 °F 100% 30.00 in 4.0 mi East 6.9 mph - N/A   Light Drizzle
1:35 AM 42.8 °F 41.1 °F 42.8 °F 100% 29.99 in 3.0 mi East 3.5 mph - 0.01 in   Light Drizzle
1:55 AM 42.8 °F 40.1 °F 42.8 °F 100% 29.98 in 3.0 mi East 4.6 mph - 0.01 in   Light Drizzle
2:15 AM 42.8 °F 40.1 °F 42.8 °F 100% 29.98 in 3.0 mi East 4.6 mph - N/A   Light Drizzle
2:35 AM 42.8 °F 40.1 °F 42.8 °F 100% 29.98 in 3.0 mi East 4.6 mph - N/A   Light Drizzle
2:55 AM 42.8 °F 41.1 °F 42.8 °F 100% 29.98 in 3.0 mi East 3.5 mph - N/A Rain Rain
3:15 AM 42.8 °F - 42.8 °F 100% 29.98 in 4.0 mi Calm Calm - N/A   Drizzle
3:35 AM 42.8 °F - 42.8 °F 100% 29.98 in 4.0 mi Calm Calm - 0.01 in   Drizzle
3:55 AM 42.8 °F - 42.8 °F 100% 29.99 in 4.0 mi Calm Calm - 0.02 in   Drizzle
4:15 AM 42.8 °F 40.1 °F 42.8 °F 100% 29.99 in 2.5 mi NNW 4.6 mph - N/A   Drizzle
4:35 AM 42.8 °F 41.1 °F 42.8 °F 100% 29.99 in 2.5 mi NW 3.5 mph - N/A   Drizzle
4:55 AM 42.8 °F - 42.8 °F 100% 29.99 in 2.5 mi Calm Calm - N/A   Light Drizzle
5:15 AM 42.8 °F - 42.8 °F 100% 30.00 in 3.0 mi Calm Calm - N/A   Overcast
5:35 AM 42.8 °F - 42.8 °F 100% 30.00 in 2.5 mi Calm Calm - N/A   Overcast
5:55 AM 42.8 °F - 42.8 °F 100% 30.00 in 2.5 mi Calm Calm - N/A   Overcast
6:15 AM 42.8 °F 41.1 °F 42.8 °F 100% 30.00 in 7.0 mi West 3.5 mph - N/A   Overcast
6:35 AM 42.8 °F 41.1 °F 42.8 °F 100% 30.00 in 4.0 mi West 3.5 mph - N/A   Overcast
6:55 AM 42.8 °F 41.1 °F 42.8 °F 100% 30.01 in 5.0 mi West 3.5 mph - N/A   Overcast
7:15 AM 42.8 °F 39.3 °F 42.8 °F 100% 30.01 in 2.5 mi West 5.8 mph - N/A   Overcast
7:35 AM 44.6 °F 42.2 °F 42.8 °F 93% 30.01 in 1.2 mi West 4.6 mph - N/A   Overcast
7:55 AM 44.6 °F 40.2 °F 42.8 °F 93% 30.02 in 1.8 mi West 8.1 mph - N/A   Overcast
8:15 AM 44.6 °F 39.7 °F 42.8 °F 93% 30.02 in 7.0 mi West 9.2 mph - N/A   Overcast
8:35 AM 44.6 °F 40.2 °F 44.6 °F 100% 30.03 in 10.0 mi West 8.1 mph - N/A   Overcast
8:55 AM 44.6 °F 37.8 °F 44.6 °F 100% 30.05 in 7.0 mi WNW 15.0 mph 20.7 mph 0.01 in   Overcast
9:15 AM 44.6 °F 38.8 °F 42.8 °F 93% 30.06 in 10.0 mi West 11.5 mph 23.0 mph N/A   Overcast
9:35 AM 44.6 °F 40.2 °F 42.8 °F 93% 30.07 in 4.0 mi WNW 8.1 mph 21.9 mph N/A   Overcast
9:55 AM 44.6 °F 38.4 °F 42.8 °F 93% 30.08 in 4.0 mi WNW 12.7 mph 21.9 mph N/A   Overcast
10:15 AM 44.6 °F 38.8 °F 42.8 °F 93% 30.09 in 4.0 mi WNW 11.5 mph 19.6 mph N/A   Overcast
10:35 AM 44.6 °F 38.1 °F 41.0 °F 87% 30.10 in 10.0 mi WNW 13.8 mph 26.5 mph N/A   Overcast
10:55 AM 46.4 °F 40.4 °F 41.0 °F 81% 30.10 in 10.0 mi WNW 13.8 mph 24.2 mph N/A   Overcast
11:15 AM 46.4 °F 39.8 °F 39.2 °F 76% 30.10 in 10.0 mi NW 16.1 mph 19.6 mph N/A   Mostly Cloudy
11:35 AM 46.4 °F 40.4 °F 37.4 °F 71% 30.11 in 10.0 mi WNW 13.8 mph 23.0 mph N/A   Mostly Cloudy
11:55 AM 46.4 °F 40.7 °F 37.4 °F 71% 30.12 in 10.0 mi NW 12.7 mph 21.9 mph N/A   Mostly Cloudy
12:15 PM 44.6 °F 38.1 °F 37.4 °F 76% 30.13 in 10.0 mi WNW 13.8 mph 19.6 mph N/A   Overcast
12:35 PM 44.6 °F 38.8 °F 37.4 °F 76% 30.14 in 10.0 mi WNW 11.5 mph 18.4 mph N/A   Overcast
12:55 PM 44.6 °F 39.2 °F 35.6 °F 71% 30.15 in 10.0 mi WNW 10.4 mph - N/A   Overcast
1:15 PM 44.6 °F 38.1 °F 35.6 °F 71% 30.16 in 10.0 mi NW 13.8 mph 19.6 mph N/A   Overcast
1:35 PM 44.6 °F 38.8 °F 35.6 °F 71% 30.16 in 10.0 mi NW 11.5 mph 17.3 mph N/A   Overcast
1:55 PM 46.4 °F 40.7 °F 35.6 °F 66% 30.16 in 10.0 mi WNW 12.7 mph 19.6 mph N/A   Overcast
2:15 PM 46.4 °F 40.7 °F 35.6 °F 66% 30.17 in 10.0 mi NW 12.7 mph 18.4 mph N/A   Overcast
2:35 PM 44.6 °F 38.8 °F 35.6 °F 71% 30.18 in 10.0 mi NW 11.5 mph 20.7 mph N/A   Overcast
2:55 PM 44.6 °F 38.4 °F 35.6 °F 71% 30.19 in 10.0 mi NW 12.7 mph - N/A   Overcast
3:15 PM 44.6 °F 38.1 °F 35.6 °F 71% 30.20 in 10.0 mi NW 13.8 mph - N/A   Overcast
3:35 PM 44.6 °F 37.8 °F 35.6 °F 71% 30.21 in 10.0 mi West 15.0 mph 19.6 mph N/A   Overcast
3:55 PM 44.6 °F 39.2 °F 35.6 °F 71% 30.21 in 10.0 mi WNW 10.4 mph - N/A   Overcast
4:15 PM 44.6 °F 39.7 °F 35.6 °F 71% 30.23 in 10.0 mi NW 9.2 mph - N/A   Overcast
4:35 PM 42.8 °F 37.0 °F 35.6 °F 76% 30.24 in 10.0 mi WNW 10.4 mph - N/A   Overcast
4:55 PM 42.8 °F 38.0 °F 35.6 °F 76% 30.25 in 10.0 mi NW 8.1 mph - N/A   Overcast
5:15 PM 42.8 °F 36.6 °F 35.6 °F 76% 30.25 in 10.0 mi NW 11.5 mph 16.1 mph N/A   Overcast
5:35 PM 42.8 °F 36.6 °F 33.8 °F 70% 30.26 in 10.0 mi NNW 11.5 mph - N/A   Overcast
5:55 PM 42.8 °F 37.0 °F 33.8 °F 70% 30.28 in 10.0 mi WNW 10.4 mph 16.1 mph N/A   Overcast
6:15 PM 42.8 °F 38.6 °F 35.6 °F 76% 30.28 in 10.0 mi WNW 6.9 mph - N/A   Overcast
6:35 PM 42.8 °F 38.6 °F 35.6 °F 76% 30.29 in 10.0 mi WNW 6.9 mph - N/A   Overcast
6:55 PM 42.8 °F 38.6 °F 35.6 °F 76% 30.29 in 10.0 mi WNW 6.9 mph - N/A   Overcast
7:15 PM 42.8 °F 39.3 °F 35.6 °F 76% 30.30 in 10.0 mi WNW 5.8 mph - N/A   Overcast
7:35 PM 42.8 °F 39.3 °F 35.6 °F 76% 30.31 in 10.0 mi WNW 5.8 mph - N/A   Overcast
7:55 PM 42.8 °F 37.0 °F 35.6 °F 76% 30.31 in 10.0 mi NNW 10.4 mph 17.3 mph N/A   Overcast
8:15 PM 42.8 °F 37.0 °F 35.6 °F 76% 30.32 in 10.0 mi NNW 10.4 mph - N/A   Overcast
8:35 PM 41.0 °F 34.7 °F 35.6 °F 81% 30.33 in 10.0 mi NNW 10.4 mph - N/A   Overcast
8:55 PM 41.0 °F 35.2 °F 33.8 °F 76% 30.33 in 10.0 mi NW 9.2 mph - N/A   Overcast
9:15 PM 41.0 °F 35.8 °F 33.8 °F 76% 30.33 in 10.0 mi NNW 8.1 mph - N/A   Overcast
9:35 PM 41.0 °F 37.1 °F 33.8 °F 76% 30.34 in 10.0 mi NW 5.8 mph - N/A   Overcast
9:55 PM 41.0 °F 37.1 °F 33.8 °F 76% 30.35 in 10.0 mi NNW 5.8 mph - N/A   Overcast
10:15 PM 41.0 °F 36.4 °F 35.6 °F 81% 30.35 in 10.0 mi NNW 6.9 mph - N/A   Overcast
10:35 PM 41.0 °F 36.4 °F 35.6 °F 81% 30.35 in 10.0 mi NNW 6.9 mph - N/A   Overcast
10:55 PM 41.0 °F 37.1 °F 35.6 °F 81% 30.36 in 10.0 mi NNW 5.8 mph - N/A   Overcast
11:15 PM 41.0 °F 37.1 °F 35.6 °F 81% 30.36 in 10.0 mi NNW 5.8 mph - N/A   Overcast
11:35 PM 41.0 °F 38.0 °F 35.6 °F 81% 30.37 in 10.0 mi NW 4.6 mph - N/A   Overcast
11:55 PM 41.0 °F 37.1 °F 35.6 °F 81% 30.37 in 10.0 mi NNW 5.8 mph - N/A   Overcast